Wind_Speed
30 31 31 29 28 27 24 22 20 19 17 17 15 13 13 11 10 14 12 18 13 3 12 23 23 18 11 8 4 9 7 2 4 5 6 8 12 8 17 20 22 20 16 13 12 13 16 6 4 5 6 12 12 11
32 32 31 29 27 26 20 18 19 17 12 12 9 9 10 10 9 8 7 14 18 5 6 26 29 27 24 24 15 7 11 7 3 3 3 4 6 5 12 13 7 18 16 12 6 4 6 4 2 2 3 6 10 0
31 31 31 27 23 20 17 15 12 11 11 10 7 8 9 8 8 9 9 7 4 3 9 16 16 17 28 32 25 9 7 2 4 5 3 3 6 4 5 5 13 3 8 4 10 5 8 11 11 10 14 7 4 9
25 27 22 18 15 14 12 11 10 10 7 5 7 7 8 6 7 9 10 11 10 3 5 5 6 6 7 16 28 34 18 3 3 3 3 3 4 6 4 4 4 5 5 11 13 12 13 11 12 12 12 11 10 15
21 19 20 17 15 14 14 11 8 6 6 7 7 7 6 6 7 9 12 14 13 5 6 11 27 7 3 22 17 23 21 11 2 3 2 2 4 5 1 3 3 6 4 5 8 12 12 10 10 8 10 9 10 15
19 18 15 15 17 15 13 9 9 10 9 8 8 6 7 8 8 7 3 3 12 14 3 4 8 5 4 8 16 15 10 10 3 3 2 1 6 5 1 2 8 9 6 5 7 11 17 14 10 7 5 6 10 15
18 15 13 16 17 15 13 12 12 11 10 8 8 8 9 8 6 5 5 4 6 8 2 3 4 1 8 13 8 10 9 4 5 2 3 2 3 4 3 3 11 5 6 7 14 17 15 13 8 11 4 5 10 11
17 15 15 14 15 15 14 14 14 13 12 11 11 12 11 11 9 6 12 11 7 3 2 3 4 4 11 10 8 5 4 2 4 4 1 3 4 2 4 7 8 10 16 17 16 17 15 12 7 7 3 2 11 8
18 16 16 15 15 16 16 15 17 19 17 15 15 14 5 4 2 2 4 5 14 1 2 2 3 3 2 7 7 2 4 5 3 2 1 2 3 4 5 8 11 12 10 13 15 13 11 11 8 5 3 5 9 6
19 18 18 15 14 16 15 18 22 23 13 12 5 4 2 3 5 2 4 3 4 4 1 3 4 3 4 7 3 4 5 1 0 1 3 3 3 10 10 11 9 8 12 11 15 8 10 7 6 3 6 5 6 6
20 18 17 16 15 15 17 20 24 23 8 7 5 3 10 12 4 3 2 3 3 3 3 4 5 6 1 2 4 7 4 6 2 2 1 3 5 7 10 10 9 5 11 11 11 14 11 8 6 3 6 4 6 7
18 16 16 17 18 19 20 21 23 17 11 8 9 8 6 3 2 4 2 1 3 3 3 5 7 6 4 2 4 4 3 2 4 4 3 3 3 8 8 5 2 6 10 11 11 9 7 7 7 6 7 7 8 10
15 15 16 21 26 27 24 23 20 19 10 2 2 3 4 3 3 7 7 2 3 5 4 6 7 4 3 3 3 2 3 3 4 4 3 3 3 5 7 3 7 8 9 9 10 10 11 11 12 11 9 11 11 11
17 15 17 24 36 31 24 18 13 8 3 3 5 6 5 4 5 3 7 5 4 5 7 8 5 4 3 2 4 4 5 3 5 4 4 4 7 4 3 3 8 9 9 10 11 10 11 10 10 12 12 10 11 12
20 20 16 26 36 29 18 14 10 5 4 3 3 4 4 5 7 6 5 5 4 5 4 6 4 2 5 5 5 4 4 5 5 3 2 4 4 3 7 7 7 7 7 9 9 10 11 11 10 12 12 12 12 11
22 13 16 37 36 27 16 9 6 3 2 1 2 4 8 6 10 11 9 8 7 6 4 3 3 3 7 4 4 8 4 5 3 3 4 3 4 6 7 7 7 6 7 8 9 9 9 9 7 7 9 10 11 10
13 9 27 34 36 20 14 5 4 4 5 5 4 5 7 6 9 10 10 10 9 5 4 3 5 5 2 5 5 4 3 3 5 5 5 6 7 7 7 7 7 8 8 9 9 8 7 6 7 7 6 5 6 6
10 23 26 29 29 13 6 8 4 3 5 5 6 9 9 7 9 10 9 9 7 6 6 4 4 8 5 4 3 1 2 4 2 3 6 6 5 5 6 6 7 7 7 7 7 6 5 7 5 7 6 4 3 2
22 22 22 25 18 5 4 4 5 4 5 4 6 8 7 8 9 8 8 8 4 3 1 3 5 6 5 5 7 7 6 5 3 4 4 4 7 8 7 7 7 8 10 10 10 9 8 6 6 7 7 8 8 6
16 14 20 14 11 3 2 3 4 3 5 5 6 8 5 8 8 8 10 10 9 8 8 6 5 6 7 5 5 5 5 5 3 3 4 5 7 7 11 10 9 8 7 7 8 12 10 10 11 10 10 9 9 11
10 11 13 12 5 7 3 4 2 3 4 4 7 5 5 6 9 11 10 8 9 8 7 8 8 6 7 6 6 7 5 5 5 4 4 4 9 8 10 10 10 11 10 10 8 10 12 13 14 13 13 11 12 10
6 14 6 7 5 3 3 6 4 4 3 4 5 5 5 7 7 6 6 6 3 3 3 4 4 5 6 9 9 10 10 10 9 8 4 2 3 5 5 8 8 6 9 10 11 11 12 14 15 15 14 13 13 12
9 7 4 5 3 4 2 6 3 5 4 4 4 4 4 4 4 3 2 2 2 3 3 4 8 11 13 17 21 22 19 15 9 11 11 10 8 6 6 7 8 8 7 10 12 13 14 13 13 14 13 12 12 12
6 4 4 4 5 4 3 4 3 3 2 3 3 2 3 4 5 3 4 5 5 6 7 10 7 7 9 14 12 16 21 19 15 13 14 11 5 6 6 5 6 7 9 11 12 13 13 12 10 11 13 13 13 13
2 5 3 5 2 4 4 4 4 3 3 4 2 2 3 3 2 3 3 5 7 7 6 9 11 8 10 10 12 18 22 21 16 9 14 13 11 7 4 5 6 6 12 15 14 15 13 12 12 12 13 13 13 13
3 3 3 4 2 4 5 5 6 5 4 4 3 3 2 3 3 4 3 8 7 9 9 9 9 9 10 15 10 13 18 19 17 14 14 14 14 14 10 9 9 12 16 16 16 15 14 13 13 13 14 13 11 13
3 4 2 1 2 1 1 1 0 2 3 4 3 3 3 3 6 5 5 9 5 13 13 13 15 14 12 15 16 16 17 17 16 14 9 7 9 10 12 13 12 14 17 15 16 16 15 14 13 12 13 14 15 15
2 1 3 2 1 1 3 3 3 3 3 2 2 5 4 4 4 2 2 7 9 5 9 15 16 18 17 14 13 15 17 18 17 16 15 12 14 17 19 18 17 18 17 14 12 15 15 15 14 15 15 15 16 15
1 1 1 2 1 1 1 3 5 4 4 3 2 3 3 2 6 6 8 12 16 18 18 16 15 16 16 16 16 15 17 19 19 16 15 10 12 17 19 19 19 18 17 17 9 8 10 12 11 13 14 15 16 15
3 1 3 3 3 3 4 5 7 7 8 8 5 9 9 10 13 10 7 7 6 5 5 7 12 16 17 17 16 16 16 17 18 18 12 10 15 18 19 19 19 19 18 17 17 18 16 18 18 15 15 17 17 17
3 2 3 2 3 4 8 10 13 13 7 5 5 5 3 3 4 4 7 6 5 9 12 13 13 16 17 15 15 14 12 15 17 18 20 19 19 20 20 19 19 19 19 19 18 17 17 17 16 16 15 16 16 15
4 4 5 4 3 5 6 4 3 3 1 1 3 3 2 3 2 4 7 11 12 12 10 12 13 14 14 13 12 12 11 12 14 17 18 17 17 17 17 17 17 17 17 16 15 15 15 16 16 17 16 14 14 14
3 5 4 3 3 4 5 5 3 3 2 2 2 1 1 3 5 6 4 9 10 11 11 10 11 11 12 13 15 14 14 14 10 14 19 18 17 16 16 17 18 18 18 16 16 16 15 16 15 15 15 15 14 14
Wind_Direction
327 321 314 310 306 304 303 304 301 296 294 295 285 278 280 270 256 227 237 236 213 246 270 278 276 267 249 266 288 341 308 178 273 246 225 229 243 223 215 180 186 195 197 210 228 217 226 5 209 236 354 326 312 276
331 328 323 315 311 308 301 300 298 296 289 305 284 291 287 259 249 234 244 246 230 235 272 289 278 262 257 257 259 259 297 330 283 306 343 316 270 258 216 187 166 197 209 210 241 190 86 77 83 50 28 360 349 77
330 330 328 324 322 321 313 308 313 317 303 300 288 294 302 263 248 230 243 250 215 261 272 253 258 258 238 234 229 237 233 223 250 346 310 291 278 324 240 258 152 101 127 148 167 126 94 101 82 62 70 71 55 58
336 344 353 355 357 356 355 336 317 322 323 300 303 293 299 287 272 246 243 240 233 276 284 307 328 263 239 222 215 219 234 71 321 299 258 269 278 343 350 356 6 1 300 146 102 127 110 79 69 72 76 71 74 79
351 353 357 1 359 358 355 3 8 353 327 316 314 310 312 309 290 271 259 249 231 243 302 305 299 265 253 213 203 206 218 217 312 307 253 281 306 309 87 130 49 343 343 210 163 148 115 89 59 41 63 77 70 71
352 352 356 3 4 357 3 359 350 344 331 311 305 295 296 298 289 279 247 54 245 236 274 300 337 289 318 173 190 189 195 192 236 288 301 235 274 284 280 102 9 336 268 257 114 110 98 95 52 38 63 66 66 72
1 1 2 358 359 4 5 1 353 344 335 322 307 294 294 298 286 271 332 333 355 175 239 266 290 65 104 118 131 144 144 197 227 263 245 250 253 264 57 47 339 8 58 109 115 117 83 61 59 314 42 96 87 83
14 10 4 3 7 5 359 352 347 343 334 320 306 301 299 289 282 284 267 253 206 228 264 289 278 239 185 150 128 146 157 198 223 246 135 263 270 75 64 28 23 89 79 62 62 77 91 99 75 358 279 177 82 58
12 9 1 1 1 1 0 357 351 343 327 312 307 301 284 217 235 261 8 221 192 177 286 257 287 71 317 81 107 137 183 213 186 153 289 349 355 53 48 40 33 63 83 95 68 53 70 95 146 222 63 38 86 97
15 15 12 3 1 357 359 354 349 346 336 329 325 267 244 110 278 247 213 198 187 194 263 258 303 317 348 124 96 184 211 167 93 151 117 17 72 50 44 40 30 73 92 77 77 69 55 346 19 46 65 48 57 64
11 10 9 9 8 1 352 351 352 359 3 355 347 312 320 313 246 210 268 242 143 215 210 251 289 326 115 213 170 209 165 172 110 155 346 51 23 62 53 29 8 54 129 145 155 160 165 180 173 131 91 78 74 77
11 13 15 13 2 348 342 341 343 349 328 299 284 295 290 270 265 272 249 235 292 36 337 301 325 310 300 274 246 158 229 168 93 117 65 65 11 40 87 85 43 72 83 101 105 103 112 108 104 88 78 69 66 57
349 354 356 353 350 342 333 327 329 329 332 278 251 306 328 351 341 1 11 18 344 342 352 320 318 335 259 222 253 332 74 91 145 48 65 70 101 48 41 8 93 89 90 86 90 96 92 81 66 60 68 68 64 64
339 330 332 343 346 348 347 347 342 352 1 17 9 12 10 354 350 339 342 331 309 315 312 309 298 351 338 15 356 16 44 34 66 59 49 70 60 15 77 33 71 77 79 84 83 78 72 66 69 60 63 61 61 53
338 332 330 341 348 353 354 359 10 29 33 52 33 20 342 295 280 307 323 300 314 280 288 289 261 319 19 51 350 359 50 67 37 54 68 87 75 37 70 60 64 64 67 67 68 68 65 58 64 66 57 56 56 56
341 337 339 344 350 353 355 358 5 23 83 90 89 358 346 348 357 1 3 357 359 328 271 249 352 27 37 5 33 26 44 42 74 75 78 96 70 63 65 63 60 48 54 56 54 50 53 43 48 54 63 54 57 51
347 349 333 343 346 352 1 357 353 17 5 23 11 11 355 348 351 353 352 355 333 322 16 6 40 27 352 29 38 19 43 63 75 93 87 60 51 45 34 37 35 36 34 30 31 39 32 30 44 47 36 51 49 48
327 328 332 341 343 344 351 6 353 12 25 24 356 354 342 343 348 358 350 353 357 14 26 47 1 27 48 42 46 346 18 62 43 46 57 55 38 26 18 16 15 16 17 12 11 357 357 3 347 42 33 29 276 52
320 324 333 341 348 341 349 29 355 17 19 3 343 351 346 353 12 352 11 13 27 342 22 36 57 42 53 41 33 36 35 38 39 50 60 33 16 8 350 360 1 13 16 26 13 357 351 2 2 3 5 12 6 19
320 326 337 353 8 333 7 36 342 348 8 347 343 348 352 4 358 12 30 19 39 41 37 46 53 45 44 28 358 18 15 16 356 119 90 35 4 2 17 2 10 4 33 44 59 25 34 37 29 18 14 350 336 352
342 330 345 4 17 36 44 352 36 13 328 335 354 356 4 9 24 29 23 26 58 40 53 35 28 17 351 339 340 342 16 22 31 32 31 16 12 11 30 37 40 39 36 33 27 31 27 24 13 4 360 3 354 354
320 340 338 356 14 26 61 23 338 335 309 343 360 360 20 21 14 15 337 22 42 25 15 11 3 345 354 17 17 30 17 24 20 11 340 359 359 13 15 28 33 43 38 23 13 8 3 2 352 342 335 340 326 326
341 348 345 355 4 42 4 349 11 13 12 16 2 29 12 354 338 313 56 358 4 347 350 16 24 64 55 43 44 37 32 30 26 22 14 27 39 52 59 47 38 23 12 14 356 354 347 342 345 338 334 333 333 329
357 5 7 17 10 17 332 23 11 4 45 27 18 13 333 336 327 36 38 19 26 32 52 53 43 69 68 54 49 37 20 15 15 33 10 3 33 40 25 21 22 24 2 349 351 346 344 344 337 341 343 334 331 330
0 6 14 1 354 337 12 13 15 20 34 28 34 54 23 334 43 64 42 9 38 58 61 68 60 43 41 37 30 26 18 12 360 360 19 356 344 325 348 346 350 12 359 351 348 342 339 336 336 342 334 341 340 327
64 45 19 12 26 345 1 352 14 6 346 357 27 352 317 319 58 57 53 358 25 37 37 32 33 45 41 29 19 13 6 3 360 358 10 359 6 357 352 345 345 347 0 340 335 331 326 329 328 331 327 330 331 311
44 37 68 63 328 316 258 291 293 323 347 359 355 337 334 41 48 19 348 22 41 32 35 36 38 37 33 26 19 13 7 2 7 357 351 357 10 15 4 347 342 351 333 326 328 328 320 315 318 325 325 330 329 338
11 325 337 30 291 279 336 352 357 360 354 19 281 29 44 29 47 59 34 8 8 19 30 33 30 27 23 17 13 12 11 7 3 2 356 4 8 6 358 345 344 342 331 341 341 335 344 335 337 336 339 334 334 338
289 17 274 308 151 161 359 3 9 23 349 313 32 74 96 66 67 56 41 45 36 31 24 18 13 12 12 12 15 19 21 11 6 7 5 6 5 3 356 352 350 350 351 346 10 17 10 352 342 340 332 325 324 322
40 342 293 311 6 69 36 25 66 53 46 69 96 112 100 83 56 56 67 74 76 74 33 27 21 12 9 10 9 13 34 23 22 15 358 358 355 350 350 350 349 347 347 344 340 336 349 344 328 320 333 335 333 341
333 292 279 290 58 86 106 97 80 67 71 54 43 95 107 160 179 82 46 25 12 25 15 15 21 20 11 16 18 12 17 21 15 10 3 351 350 349 346 346 347 346 347 345 342 341 344 339 337 340 342 342 345 340
340 354 348 24 94 141 157 153 87 108 133 129 147 185 216 232 99 90 15 4 12 15 30 18 21 24 20 22 24 23 6 7 11 7 7 5 1 357 356 1 359 359 356 354 354 354 355 354 355 358 352 348 344 344
324 20 44 83 133 175 200 194 134 108 116 256 98 121 71 20 62 48 37 27 20 17 21 25 26 28 28 23 17 9 6 8 19 17 16 14 21 16 11 12 8 6 0 1 359 355 1 2 357 352 348 348 344 344
Height
786 781 775 770 766 763 759 757 754 753 751 750 749 749 749 749 749 750 749 751 752 747 738 732 725 722 724 724 720 703 699 694 691 684 667 651 633 620 617 617 637 644 649 642 635 652 659 652 648 651 653 639 633 626
782 775 769 764 760 756 753 751 750 748 746 746 745 745 745 745 745 746 746 746 746 747 735 725 722 720 717 717 717 715 706 704 705 692 681 675 647 626 614 628 614 635 623 627 638 642 653 651 654 648 643 649 640 632
777 771 764 758 754 751 749 747 746 744 744 743 743 743 742 741 741 742 742 742 743 740 728 711 701 698 703 708 712 713 705 708 707 700 697 687 674 643 634 616 614 631 624 633 651 660 657 654 655 651 643 654 651 637
773 768 762 758 754 751 748 746 744 743 742 741 741 740 740 739 739 739 739 739 739 737 724 695 692 693 694 695 701 703 704 709 711 708 697 693 678 649 649 640 642 655 648 641 652 659 660 662 657 658 657 660 660 649
771 767 764 760 756 753 749 747 744 743 742 741 740 739 738 737 737 736 734 733 734 736 713 698 691 683 681 687 690 698 704 709 714 708 697 691 680 670 658 658 675 677 671 643 644 651 653 668 665 667 666 670 668 660
770 767 764 761 758 754 750 747 745 743 742 740 739 738 737 736 735 734 724 730 730 731 727 709 689 682 680 680 686 693 701 704 712 702 694 691 683 684 657 671 681 676 670 665 655 659 664 672 678 676 679 682 676 667
771 767 765 762 758 754 751 748 746 743 741 739 737 736 735 735 734 731 726 730 729 729 731 713 692 678 679 681 688 693 702 701 699 699 692 686 683 662 671 683 682 676 667 662 659 665 676 684 692 691 684 682 678 676
772 769 766 762 759 756 752 749 746 744 741 738 735 734 733 731 731 729 725 726 728 729 725 714 700 679 675 679 683 693 699 703 696 687 691 685 675 668 684 688 682 681 678 681 679 677 684 693 697 694 689 691 681 681
774 771 767 764 760 757 753 750 746 743 739 735 732 729 729 728 726 725 723 722 724 727 724 717 695 678 667 669 682 690 693 686 675 682 685 685 683 687 691 691 687 684 686 692 690 692 694 694 701 699 694 690 684 689
776 772 768 764 760 757 754 750 745 740 735 732 730 726 718 722 723 725 724 723 721 720 721 713 685 676 671 665 680 694 678 675 684 684 686 690 690 692 693 694 694 694 695 696 700 702 701 701 696 695 692 689 688 686
778 773 769 765 761 757 754 750 745 739 736 734 731 727 723 721 718 713 708 707 709 714 717 703 684 680 673 673 669 668 668 663 680 681 679 694 698 698 700 698 697 695 696 699 698 702 702 699 700 693 689 691 690 690
779 774 770 766 763 759 754 749 745 743 740 739 737 734 728 718 710 708 696 694 691 699 699 692 682 677 672 669 663 659 655 654 673 673 682 699 707 705 703 701 702 697 693 695 696 698 700 697 696 694 691 691 691 690
779 775 771 767 762 757 751 746 744 740 736 735 734 728 724 715 716 710 705 700 702 694 692 690 681 673 665 662 656 653 657 671 659 680 703 706 709 709 708 705 700 697 698 697 696 697 696 697 696 694 693 692 694 695
779 775 770 765 760 753 747 743 740 738 737 734 736 735 737 729 724 715 711 707 706 701 698 693 682 673 667 662 661 661 662 659 677 698 707 712 713 713 709 705 700 700 699 697 697 698 698 698 698 698 697 698 696 696
778 773 769 764 758 752 747 743 741 740 740 742 746 747 738 731 722 711 705 702 697 696 702 688 678 672 668 673 675 672 673 693 704 710 713 715 715 711 708 709 707 706 705 703 703 701 700 702 700 701 700 701 699 700
777 772 769 762 756 750 746 743 743 742 742 740 741 735 730 720 711 705 703 698 697 693 689 683 675 676 682 685 683 691 697 710 716 715 716 716 716 714 713 712 713 710 708 705 705 704 704 704 703 703 703 704 703 703
777 776 769 761 755 750 747 745 743 741 736 736 736 730 728 722 719 710 707 704 701 688 687 683 692 697 685 694 709 718 719 718 714 714 715 716 716 716 714 712 711 709 708 707 706 705 707 707 704 703 704 705 705 708
779 775 769 763 756 752 750 748 745 741 741 740 736 736 733 726 722 717 714 709 704 699 695 702 696 704 708 717 723 727 721 718 718 715 713 716 717 716 715 714 712 711 710 709 708 708 708 707 702 701 705 706 704 702
778 773 769 765 760 758 754 752 752 746 746 746 745 739 734 727 727 723 716 713 711 707 702 703 709 718 724 726 724 722 718 719 719 715 716 718 717 717 716 714 713 712 712 711 713 712 711 710 708 707 705 704 702 701
774 771 769 765 761 760 755 756 757 751 750 752 747 743 739 735 730 724 722 717 713 711 716 722 728 730 730 731 730 725 723 721 718 716 717 720 720 719 719 717 716 715 713 716 717 717 711 710 710 709 709 710 707 703
773 772 767 766 764 763 764 762 758 762 760 753 751 748 744 738 734 732 731 725 724 728 732 738 739 740 739 736 734 732 730 729 728 727 727 725 724 722 720 720 719 718 718 717 716 716 715 714 716 714 713 712 712 709
777 773 771 769 767 766 765 768 766 764 760 756 753 750 748 747 747 750 751 744 747 750 750 750 748 746 741 737 736 735 735 733 732 731 729 728 726 726 724 725 724 724 726 726 724 722 721 722 722 720 718 716 714 712
778 777 775 772 769 771 775 768 764 763 761 759 753 756 760 761 757 757 757 760 758 758 756 753 750 749 747 745 742 741 739 737 735 733 731 728 729 730 730 730 730 730 728 729 728 726 725 726 723 722 719 717 714 712
781 780 776 774 772 773 770 766 766 765 763 763 767 767 763 760 759 757 761 761 761 759 757 756 753 748 747 746 745 747 745 741 737 736 736 732 730 734 733 732 732 733 734 731 730 729 727 725 725 722 720 718 715 714
786 786 783 783 776 771 768 766 766 763 763 764 762 759 757 760 757 765 771 768 764 763 761 758 757 755 753 752 752 752 753 749 745 740 742 740 737 733 732 734 734 735 736 735 733 731 729 727 725 724 723 720 720 718
785 780 783 774 773 772 771 766 767 769 768 764 763 761 760 756 754 767 776 779 770 768 768 766 763 762 763 764 762 761 759 757 753 749 748 747 744 743 740 738 737 737 739 739 736 734 731 729 727 726 725 723 722 720
777 773 776 782 780 778 772 773 774 773 767 763 761 758 757 758 774 787 787 785 782 782 779 776 773 771 770 770 769 768 765 762 758 756 753 752 750 750 750 748 745 745 745 741 738 735 732 730 727 726 725 723 722 720
777 778 774 774 776 776 772 767 767 764 762 762 762 765 773 778 787 791 791 791 789 787 785 782 780 778 776 774 773 771 768 766 763 760 756 752 752 752 754 752 749 747 744 741 740 737 734 732 730 728 727 726 725 724
773 771 774 767 770 770 769 767 765 766 767 763 765 774 787 790 790 791 792 792 792 792 792 792 788 783 781 778 775 772 772 771 768 764 761 758 758 758 758 755 751 748 744 742 740 741 740 739 736 733 731 729 727 724
766 768 766 762 762 768 770 768 773 775 774 776 783 786 790 793 796 796 795 794 794 794 792 789 788 786 783 780 778 776 776 778 776 775 771 767 766 764 761 758 755 752 749 746 743 741 737 736 734 732 730 729 727 726
767 765 763 762 765 770 773 777 779 783 788 790 791 792 794 796 797 798 797 796 793 791 790 789 788 789 787 785 785 783 781 783 782 781 779 775 771 768 765 761 758 755 751 749 746 743 741 740 737 734 733 732 731 730
765 766 765 762 770 775 776 778 785 790 791 791 791 793 793 789 786 795 798 795 792 792 794 793 793 793 792 790 789 788 788 785 785 785 783 780 777 773 769 765 762 759 756 752 749 746 744 742 739 739 737 735 732 730
763 759 759 761 767 770 771 775 778 790 791 790 784 784 784 784 789 798 799 798 798 797 796 796 796 796 795 794 793 790 789 787 786 784 784 782 779 776 772 769 766 762 758 754 751 748 745 744 742 740 737 736 733 731